Regional Weather Roundup
Issued by NWS Albany, NY

Home | Current Version | Previous Version | Graphics & Text | Print | Product List | Glossary Off
Versions: 1 2 3 4 5 6 7 8 9 10 11 12 13 14 15 16 17 18 19 20 21 22 23 24 25 26 27 28 29 30 31 32 33 34 35 36 37 38 39 40 41 42 43 44 45 46 47 48 49 50

241
ASUS41 KALY 222010
RWRALY

NEW YORK STATE HOURLY WEATHER ROUNDUP
NATIONAL WEATHER SERVICE ALBANY NY
400 PM EDT MON MAY 22 2017

NOTE: "FAIR" INDICATES FEW OR NO CLOUDS BELOW 12,000 FEET WITH NO
SIGNIFICANT WEATHER AND/OR NO OBSTRUCTIONS TO VISIBILITY.

NYZ032-033-038>043-046>054-057>066-NYZ062>081-082-084-222100-
EAST


CITY           SKY/WX    TMP DP  RH WIND       PRES   REMARKS
ALBANY         LGT RAIN  59  51  75 S14G25    29.97F
GLENS FALLS    NOT AVBL
POUGHKEEPSIE   LGT RAIN  57  55  93 CALM      30.00F FOG
NEWBURGH       LGT RAIN  57  55  94 VRB6      30.03F FOG
MONTGOMERY     LGT RAIN  58  55  90 CALM      30.00F
WHITE PLAINS   LGT RAIN  56  55  97 E7        30.01F VSB 3/4
ISLIP          LGT RAIN  58  58 100 SE12      30.02F FOG
NEW YORK CITY  RAIN      60  58  92 S8        30.00F FOG
CENTRAL PARK   LGT RAIN  59  59 100 CALM      30.02F FOG
$$

NYZ005>009-017-018-044>046-055-056-222100-
CENTRAL


CITY           SKY/WX    TMP DP  RH WIND       PRES   REMARKS
FULTON         CLOUDY    65  53  65 W13       29.91S
SYRACUSE       PTSUNNY   68  59  73 S9        29.88F
ROME           CLOUDY    57  56  96 E9        29.94F
ELMIRA         CLOUDY    69  55  60 S8        29.89F
BINGHAMTON     CLOUDY    59  57  93 S6        29.95F
MONTICELLO     CLOUDY    54  54 100 SE3       30.02S
$$

NYZ026>034-041>043-087-222100-
NORTH


CITY           SKY/WX    TMP DP  RH WIND       PRES   REMARKS
WATERTOWN      CLOUDY    62  56  80 SW12G23   29.89R
FORT DRUM      NOT AVBL
OGDENSBURG     CLOUDY    59  57  91 S7        29.87F FOG
MASSENA        LGT RAIN  60  57  89 SW6       29.89S FOG
SARANAC LAKE   CLOUDY    53  53 100 SW12      29.91S
PLATTSBURGH    LGT RAIN  52  50  93 S10       29.93F
$$

NYZ001>004-010>016-019>021-085-222100-
WEST


CITY           SKY/WX    TMP DP  RH WIND       PRES   REMARKS
NIAGARA FALLS  CLOUDY    61  45  55 SW18G30   29.95F
BUFFALO        CLOUDY    57  43  59 W25G38    29.97F
DUNKIRK        CLOUDY    57  43  59 SW15G24   30.01F
JAMESTOWN      PTSUNNY   55  43  62 W10G20    30.01R
WELLSVILLE     PTSUNNY   66  51  58 W13G21    29.95S
ROCHESTER      CLOUDY    62  44  51 W24G33    29.95R
PENN YAN       CLOUDY    69  54  58 N3        29.90S
$$

             KEY
       WCI = WIND CHILL INDEX
       VSB = VISIBILITY
       HX  = HEAT INDEX
$$




USA.gov is the U.S. government's official web portal to all federal, state and local government web resources and services.